Wind_Speed
14 15 14 14 15 14 14 13 12 12 12 12 11 12 13 14 14 7 7 11 17 11 11 8 11 11 7 3 7 3 2 5 8 11 7 7 7 5 5 13 14 7 14 25 35
15 15 15 15 15 14 14 14 14 13 12 12 10 10 12 12 12 13 17 13 12 14 10 10 6 8 3 3 4 4 4 4 16 14 12 11 5 7 3 10 5 20 19 32 34
16 16 16 16 16 15 14 15 14 14 12 11 10 8 9 9 4 8 3 19 21 14 16 14 5 3 5 3 3 3 2 10 7 12 20 15 10 6 8 7 16 22 23 26 31
17 17 16 16 15 15 15 14 15 15 13 11 8 8 5 2 4 3 4 16 20 14 14 6 3 4 5 6 4 4 7 4 8 12 16 14 10 8 13 11 17 22 24 25 20
18 18 17 17 16 16 16 16 14 14 13 11 7 4 1 1 9 7 2 21 19 15 15 6 6 5 4 6 7 7 7 8 15 12 12 14 9 6 9 15 15 20 22 22 19
19 19 18 17 17 16 16 16 15 13 11 9 5 2 0 2 5 7 10 22 18 19 15 10 6 8 7 9 8 9 6 12 10 11 12 11 8 9 5 5 18 19 20 17 19
19 19 19 18 17 16 15 15 13 11 8 6 3 3 2 12 4 10 14 19 21 19 6 22 14 2 5 5 12 13 7 11 15 12 13 15 5 11 7 3 17 16 15 16 15
20 19 17 17 16 16 15 13 10 7 4 4 3 3 7 7 13 8 13 8 16 15 22 11 7 6 5 7 1 5 5 5 11 12 12 4 6 14 10 6 14 14 10 12 18
21 19 17 16 16 14 9 6 6 4 0 4 4 3 9 13 10 18 21 7 13 15 15 11 4 6 2 2 5 1 3 4 14 6 11 2 7 14 11 9 16 14 8 12 19
21 18 15 16 16 12 6 6 3 5 6 5 6 3 6 4 8 6 24 14 5 3 2 3 3 2 3 5 4 3 4 2 9 3 8 1 7 14 11 9 15 12 7 15 18
21 18 13 13 13 13 9 3 3 1 5 8 7 5 7 5 13 8 18 11 3 4 5 4 3 5 6 6 6 5 4 7 5 2 7 9 7 13 6 8 10 10 7 14 18
22 19 15 13 15 16 9 2 8 3 8 15 14 8 18 9 4 7 15 6 4 5 2 5 4 7 4 7 7 4 1 7 12 10 5 4 6 8 2 5 12 9 6 11 13
21 20 19 16 16 9 5 14 18 17 3 8 7 6 6 9 7 8 9 6 5 4 4 6 6 7 6 8 8 7 5 8 10 11 4 12 3 2 9 5 7 4 6 10 15
22 19 18 17 7 6 8 11 22 9 4 6 3 6 4 9 3 10 11 5 2 8 5 6 7 6 6 8 6 7 8 11 24 10 5 2 4 4 6 11 9 6 5 11 14
22 20 17 17 14 4 11 21 33 3 4 11 3 3 4 8 4 4 18 3 5 7 6 8 4 7 8 13 8 11 8 13 21 5 10 6 5 3 6 12 16 6 7 6 9
23 23 19 12 11 19 17 24 6 5 2 7 3 7 3 2 2 1 8 1 2 2 4 7 7 7 10 11 12 12 4 6 6 4 1 9 5 4 8 17 15 10 6 7 7
26 25 19 10 7 5 21 5 5 3 6 6 4 5 5 5 4 5 5 5 5 2 4 6 9 9 6 6 3 4 7 2 0 1 6 14 4 6 14 21 22 15 13 6 5
29 21 15 22 17 15 10 5 4 2 5 5 4 9 4 4 3 3 8 4 4 4 1 2 8 6 4 9 8 4 8 6 5 4 2 12 4 4 4 5 4 2 4 4 6
23 8 7 14 3 3 5 5 4 2 4 4 8 7 7 7 5 5 6 3 4 4 7 3 6 6 1 6 8 3 2 6 5 3 4 3 2 7 8 5 6 3 2 3 4
16 7 7 10 6 5 5 4 4 5 2 2 2 3 4 8 5 7 8 3 7 7 5 6 4 4 7 3 3 8 4 4 3 4 2 3 5 3 5 6 10 7 6 6 6
6 3 4 12 17 5 3 4 3 7 6 2 4 3 4 4 4 2 2 5 3 9 9 4 3 8 2 3 6 4 3 5 4 4 6 4 2 4 11 11 10 8 6 7 8
4 2 18 19 4 3 3 4 3 5 2 3 2 5 4 3 4 2 1 4 8 6 7 4 4 1 5 9 4 5 6 5 4 2 3 4 2 10 15 13 10 7 6 7 9
3 3 1 10 3 2 3 3 6 2 2 2 4 5 3 4 5 3 1 6 13 5 2 4 3 3 8 7 7 4 2 6 4 2 5 5 5 7 12 15 11 6 5 5 9
2 3 4 4 2 6 3 3 1 4 3 2 1 5 3 2 4 4 4 3 14 2 5 3 3 5 2 4 1 6 7 4 6 4 4 3 14 12 12 11 15 10 8 9 10
2 3 3 1 4 4 7 6 6 5 7 9 6 2 6 2 3 1 2 3 9 3 3 2 3 4 4 6 5 3 8 4 3 6 6 16 17 18 14 13 13 11 11 9 10
3 3 5 4 5 5 6 4 7 3 4 5 7 12 5 4 1 2 3 4 3 4 7 4 2 5 6 12 11 6 14 8 8 8 14 16 14 16 16 16 13 13 12 11 10
7 5 3 6 2 6 3 3 5 3 6 8 4 4 6 3 3 3 3 2 4 4 5 3 3 3 2 10 7 7 7 7 4 6 22 16 15 20 19 17 16 14 13 14 12
Wind_Direction
335 331 330 330 331 330 328 324 319 319 319 318 318 320 322 320 316 285 235 223 209 149 158 169 217 224 215 255 247 119 276 140 152 178 138 186 128 334 12 129 143 131 145 143 141
333 329 326 326 325 324 323 321 317 312 313 314 314 316 324 325 318 256 245 210 180 173 182 194 196 179 190 226 221 151 285 179 170 178 159 168 142 166 140 140 118 121 140 140 141
328 325 322 322 321 319 318 317 316 314 313 310 312 314 326 335 314 247 285 207 191 194 213 207 223 174 191 192 118 136 280 319 172 151 148 154 146 164 138 131 166 145 155 149 142
327 323 321 319 318 316 314 313 312 309 309 313 306 310 332 10 234 266 323 185 183 190 193 198 185 189 213 169 137 100 230 276 130 138 144 165 153 155 174 185 186 146 161 149 151
326 324 322 319 317 314 311 310 308 305 305 306 305 326 48 77 251 253 143 158 166 180 195 185 182 176 197 163 133 168 200 295 252 158 140 137 147 148 125 146 182 142 159 157 160
326 323 320 315 313 310 308 306 303 300 301 298 295 107 201 256 257 215 173 169 179 186 205 189 200 195 271 162 182 174 130 158 186 150 139 123 127 130 223 193 159 142 158 164 150
329 327 323 320 317 312 308 305 302 300 293 290 276 140 271 239 230 186 183 186 188 193 174 210 221 244 351 313 219 150 151 161 158 153 138 128 120 160 173 151 163 161 158 175 151
333 330 327 325 321 321 325 324 321 308 289 267 163 185 243 251 200 256 206 207 205 210 213 214 228 262 198 269 319 167 88 157 170 165 161 146 148 166 189 206 183 174 170 164 151
335 333 332 335 336 340 351 1 11 34 277 189 160 197 268 314 188 228 206 190 196 217 231 257 294 216 269 68 360 314 173 168 149 319 163 8 112 185 195 211 179 183 183 140 152
339 341 346 346 345 351 21 5 92 68 91 146 269 303 272 259 193 178 198 188 176 168 355 207 171 211 58 82 218 209 183 180 147 136 63 11 127 161 189 192 186 187 160 151 155
344 344 344 343 341 338 336 341 16 338 229 197 193 241 269 270 211 217 198 172 195 118 174 203 102 226 222 182 220 270 353 95 78 107 63 316 145 175 182 194 197 189 160 153 166
347 342 342 337 330 329 314 178 227 84 297 228 236 244 265 276 232 230 180 153 157 202 181 16 212 230 235 266 262 272 155 95 93 144 95 48 85 173 193 232 199 183 159 160 161
347 342 335 333 325 317 270 262 308 300 313 290 195 204 227 155 225 211 137 172 156 190 182 171 231 212 226 264 282 268 202 184 129 107 101 93 59 289 232 255 186 171 159 174 154
347 340 330 332 318 307 263 321 341 301 37 281 199 267 215 163 190 184 197 145 178 193 208 219 253 232 231 255 211 270 217 149 147 156 174 192 187 229 261 236 194 177 174 180 169
346 337 331 316 299 274 291 320 328 123 19 334 192 260 101 134 147 239 186 173 208 187 117 241 222 210 219 234 214 240 241 175 171 90 110 219 106 147 237 218 211 206 203 165 171
344 335 323 303 274 278 320 327 0 48 280 332 5 333 88 300 233 109 174 124 149 235 284 244 252 171 219 246 232 240 125 66 107 120 108 190 149 188 180 199 211 215 209 166 175
338 325 306 248 247 315 326 358 44 108 357 331 352 354 343 240 259 138 171 194 166 111 289 292 267 252 223 258 323 147 84 53 29 72 223 177 170 204 199 180 182 210 196 132 65
329 314 297 274 275 287 336 58 78 167 287 300 313 306 227 184 29 333 165 202 225 131 7 275 310 190 222 188 193 161 147 156 147 172 226 159 234 299 158 135 164 123 94 103 118
336 322 276 287 314 175 75 52 205 257 239 308 329 47 351 33 71 29 29 297 203 139 186 230 268 315 188 230 137 267 140 193 138 164 77 118 71 37 79 71 68 120 137 230 230
339 323 260 254 216 108 76 198 217 218 269 293 17 67 42 355 48 31 30 356 339 333 246 192 253 285 314 185 39 145 170 47 15 140 46 284 154 157 132 107 88 84 66 57 12
343 15 300 146 157 58 135 219 257 261 225 235 337 90 40 109 81 60 233 299 314 322 347 33 105 295 340 169 162 39 72 69 110 126 173 171 57 211 138 119 104 88 66 62 57
355 11 158 151 54 96 141 196 253 242 272 17 55 61 97 98 69 77 237 230 312 307 321 322 126 302 255 296 149 143 157 110 116 263 108 119 100 114 102 95 99 91 86 66 60
339 271 83 185 119 326 276 296 225 133 290 63 341 78 156 141 102 225 213 293 293 318 305 309 14 17 349 354 5 21 198 131 119 89 184 120 138 134 121 126 122 114 96 83 67
76 355 325 41 133 133 196 215 279 51 39 39 100 93 305 355 84 193 165 265 284 166 233 96 80 114 170 229 209 335 315 118 124 115 154 136 142 153 142 135 133 122 118 107 95
79 277 219 337 349 81 81 70 56 25 6 9 11 95 186 116 71 359 35 17 240 277 155 95 76 13 321 328 278 268 326 216 146 171 130 160 148 160 138 132 129 124 118 109 105
58 31 349 331 352 64 22 25 91 30 57 357 67 47 41 94 132 144 60 65 265 348 2 20 322 41 343 349 354 21 3 131 142 90 93 131 114 139 138 129 131 126 126 120 114
346 329 103 302 33 80 312 55 52 44 30 75 31 76 42 360 282 255 186 194 237 15 355 73 96 91 229 328 345 31 338 357 61 122 137 146 150 143 143 142 142 133 119 104 100
Height
803 801 798 796 795 794 792 789 787 786 784 783 782 781 779 777 775 774 771 763 765 768 771 776 778 781 785 785 783 784 804 805 807 802 801 793 791 788 789 789 790 789 797 804 812
802 799 797 795 793 791 790 788 785 784 782 781 780 779 778 776 773 768 755 758 763 767 770 773 776 780 786 785 784 794 802 790 782 784 793 789 792 794 796 795 797 798 803 808 814
800 797 795 793 791 789 787 786 784 782 781 779 778 777 776 775 775 754 748 752 759 764 768 771 775 779 787 781 782 795 801 788 774 774 778 788 792 791 799 807 792 799 804 808 813
797 795 793 790 788 787 785 783 782 781 779 778 776 776 775 775 774 748 747 748 756 762 767 770 775 783 785 787 782 795 788 790 777 775 780 788 787 793 795 792 791 794 801 806 814
795 792 790 788 786 784 782 781 779 778 776 776 775 775 775 776 763 747 748 750 756 761 764 769 774 778 788 777 783 783 781 784 784 777 780 781 791 793 793 787 791 797 802 805 812
793 790 787 784 782 780 779 777 776 775 773 774 774 774 775 776 747 746 748 751 753 758 761 765 766 769 775 775 778 771 778 783 782 780 783 790 795 790 795 790 790 796 803 806 811
789 787 784 782 779 777 775 774 772 771 771 772 773 774 774 759 746 747 748 749 752 754 758 758 762 770 767 767 753 766 781 775 779 787 789 788 806 804 793 795 792 797 803 806 811
788 784 781 779 776 774 772 770 769 769 770 771 773 774 767 744 747 747 749 750 752 754 755 757 764 766 770 757 759 773 776 798 786 784 785 790 816 802 797 801 797 798 803 805 810
786 783 779 777 774 772 770 769 769 767 768 771 774 774 762 741 742 741 746 747 750 752 754 757 762 766 761 774 789 780 797 796 795 789 784 797 814 803 799 802 799 800 803 805 810
784 780 778 777 776 773 771 770 769 769 771 773 773 776 750 741 736 738 742 745 749 751 757 759 766 774 780 794 816 797 795 795 793 798 795 805 806 800 801 799 800 801 806 808 811
782 779 776 773 773 773 773 770 774 774 771 761 757 754 742 738 738 738 741 745 749 755 772 760 780 790 781 782 780 783 790 804 803 796 799 810 806 803 804 803 802 802 808 808 812
781 778 775 773 771 768 770 769 762 761 765 747 745 745 738 740 743 737 739 752 756 770 763 775 786 770 765 768 775 783 788 804 804 805 805 813 812 807 806 809 800 803 808 808 812
781 778 775 772 769 767 765 761 755 758 768 743 737 739 736 736 743 740 738 746 756 768 769 785 768 758 766 772 780 783 789 796 800 809 812 803 825 821 808 805 802 801 804 806 810
780 777 773 771 771 765 761 753 755 756 784 760 741 732 728 729 743 730 733 743 752 768 767 771 756 762 770 776 775 798 767 772 794 801 823 801 843 832 821 814 803 803 804 805 805
779 775 773 770 768 764 754 753 751 753 802 749 740 723 724 737 734 738 731 741 758 759 766 772 760 766 772 767 763 773 754 761 777 801 806 822 834 834 827 820 811 806 803 804 803
777 773 770 767 764 756 756 752 750 787 798 754 737 742 739 736 736 733 737 736 741 756 756 760 742 752 755 746 747 744 758 773 789 803 825 813 813 830 820 809 806 802 804 802 805
773 768 764 763 758 755 755 754 788 798 766 766 762 753 753 750 745 744 751 758 772 783 784 762 754 743 741 757 746 748 784 825 825 829 825 796 811 806 786 787 792 797 800 806 808
765 761 758 754 755 755 756 772 792 782 783 761 756 755 760 748 754 751 756 767 758 767 784 788 788 747 734 748 758 757 774 815 824 828 812 790 811 807 785 785 791 792 796 801 803
756 754 754 750 752 755 765 796 792 780 773 770 765 770 762 755 758 760 772 769 756 759 783 782 776 737 729 727 738 755 775 764 790 789 810 819 818 803 800 802 800 803 806 808 806
755 752 746 746 750 753 776 790 784 772 765 764 775 770 780 779 777 779 779 764 765 755 756 760 778 750 736 725 731 745 746 782 796 809 826 828 827 825 814 811 809 813 814 811 808
756 756 744 741 746 766 788 787 771 760 761 764 767 771 780 782 785 787 788 770 761 758 753 754 770 767 746 749 756 758 769 772 783 795 823 831 829 804 808 808 816 817 815 814 812
758 767 745 744 764 781 789 778 766 761 751 757 755 763 775 775 782 785 784 778 759 761 770 760 777 787 764 742 729 743 759 774 801 790 808 824 829 806 809 813 819 821 818 816 815
767 762 745 746 778 781 773 770 766 760 760 758 762 760 763 774 787 781 775 763 760 763 767 762 784 801 779 764 749 755 750 763 777 781 798 818 824 810 811 811 815 822 820 818 817
767 772 755 750 760 764 768 770 767 754 757 756 760 759 764 768 772 780 781 766 756 756 757 760 784 790 803 785 772 774 760 753 774 795 805 810 813 815 816 818 813 819 823 824 823
766 770 764 773 768 763 766 768 773 774 766 765 765 762 769 783 783 781 775 769 756 754 755 764 789 780 774 772 767 763 763 761 768 771 787 804 801 808 815 817 818 820 821 827 826
772 775 767 771 763 766 773 775 776 774 773 778 780 774 774 782 780 781 779 783 780 763 766 770 777 783 781 773 768 770 762 753 755 772 781 792 806 805 808 811 818 821 824 827 830
770 767 771 772 774 777 779 772 774 770 776 775 776 777 780 778 773 770 771 775 775 770 775 780 790 793 804 787 776 793 779 767 761 766 780 798 795 799 808 811 815 820 826 829 833